Regional Weather Roundup
Issued by NWS Glasgow, MT

Home | Current Version | Previous Version | Text Only | Print | Product List | Glossary On
Versions: 1 2 3 4 5 6 7 8 9 10 11 12 13 14 15 16 17 18 19 20 21 22 23 24 25 26 27 28 29 30 31 32 33 34 35 36 37 38 39 40 41 42 43 44 45 46
000
ASUS45 KGGW 262015
RWRGGW
HOURLY WEATHER ROUNDUP FOR NORTHEAST MONTANA
NATIONAL WEATHER SERVICE GLASGOW MONTANA
100 PM MST MON JAN 26 2015

NOTE: "FAIR" INDICATES FEW OR NO CLOUDS BELOW 12,000 FEET WITH NO
SIGNIFICANT WEATHER AND/OR OBSTRUCTIONS TO VISISBILITY.

NORTHEAST MONTANA


CITY           SKY/WX    TMP DP  RH WIND       PRES   REMARKS
GLASGOW        PTSUNNY   46  36  68 E3        29.93F
PLENTYWOOD       N/A     45  32  60 S3          N/A
WOLF POINT     PTSUNNY   47  36  65 SW5       29.94F
JORDAN           N/A     51  38  60 W7        29.95F
WINNETT          N/A     57  40  52 SW6         N/A
SIDNEY         MOSUNNY   52  34  50 S3        29.98F
GLENDIVE       PTSUNNY   48  36  61 SE6       29.97F
MALTA            N/A     52  37  56 NE2         N/A
SCOBEY           N/A     47  32  56 S5        29.91F

FORT PECK REPORTS


CITY           SKY/WX    TMP DP  RH WIND       PRES   REMARKS
FORT PECK        N/A     50  33  52 S3          N/A
THE PINES        N/A     54  32  43 S3          N/A

SOUTHEAST MONTANA


CITY           SKY/WX    TMP DP  RH WIND       PRES   REMARKS
BILLINGS       CLOUDY    56  29  35 SW22      30.07F
MILES CITY     PTSUNNY   56  35  45 W7        29.98F
BAKER          MOSUNNY   56  38  50 CALM      29.99F
LIVINGSTON     SUNNY     64  25  22 SW29G35   30.10F

CENTRAL MONTANA


CITY           SKY/WX    TMP DP  RH WIND       PRES   REMARKS
HAVRE          CLOUDY    51  34  52 SW20      29.92F
LEWISTOWN      CLOUDY    48  31  51 SW14      30.02F
GREAT FALLS    MOSUNNY   67  28  23 SW21G30   29.99F
CUT BANK       MOSUNNY   64  31  28 SW18G32   29.93F
HELENA         MOSUNNY   49  33  54 NW7       30.12F
BUTTE          SUNNY     46  30  53 SE3       30.18F
BOZEMAN        SUNNY     46  31  55 S3        30.16F

WESTERN MONTANA


CITY           SKY/WX    TMP DP  RH WIND       PRES   REMARKS
MISSOULA         N/A     39  30  70 CALM      30.12F
KALISPELL      NOT AVBL

NORTH DAKOTA


CITY           SKY/WX    TMP DP  RH WIND       PRES   REMARKS
WILLISTON      SUNNY     49  32  52 SW7       29.95F
DICKINSON      MOSUNNY   50  32  50 W10       29.96F
MINOT          SUNNY     44  33  65 NW10      29.93F
BISMARCK       SUNNY     48  31  51 NW9       29.96S

SOUTHERN SASKATCHEWAN


CITY           SKY/WX    TMP DP  RH WIND       PRES   REMARKS
REGINA         PTSUNNY   37  32  81 SW3       29.90F
MOOSE JAW      PTSUNNY   46  32  57 W7        29.90F
ESTEVAN        CLOUDY    43  32  65 W7        29.90F
SWIFT CURRENT  PTSUNNY   46  37  71 SW10      29.84F



USA.gov is the U.S. government's official web portal to all federal, state and local government web resources and services.